Regional Weather Roundup
Issued by NWS

Home | Current Version | Previous Version | Graphics & Text | Print | Product List | Glossary On
Versions: 1 2 3 4 5 6 7 8 9 10 11 12 13 14 15 16 17 18 19 20 21 22 23 24 25 26 27 28 29 30 31 32 33 34 35 36 37 38 39 40 41 42 43 44 45 46 47 48 49 50
000
ASUS44 KMEG 010610
RWRTN
TENNESSEE HOURLY STATE WEATHER ROUNDUP
NATIONAL WEATHER SERVICE MEMPHIS TN
100 AM CDT FRI AUG 01 2014

TNZ002-004-019-021-049-052-054-088>092-010700-
WEST TENNESSEE

CITY           SKY/WX    TMP DP  RH WIND       PRES   REMARKS
MEMPHIS INTL   CLOUDY    73  66  78 N3        30.05F
NWS MEMPHIS      N/A     70 N/A N/A MISG        N/A
JACKSON        PTCLDY    67  64  90 CALM      30.06F
DYERSBURG      MOCLDY    70  59  68 NE3       30.07F
UNION CITY     PTCLDY    66  64  94 CALM      30.06F
PARIS          MOCLDY    61  59  93 NE3       30.07F
LEXINGTON      CLEAR     64  63  94 CALM      30.05F
SAVANNAH       PTCLDY    65  65 100 CALM      30.06F
$$

TNZ008-025-027-028-033-062-065-066-010700-
NORTH MIDDLE TENNESSEE

CITY           SKY/WX    TMP DP  RH WIND       PRES   REMARKS
NASHVILLE      MOCLDY    68  62  81 CALM      30.07F
DICKSON        MOCLDY    64  61  88 CALM      30.08F
PORTLAND       CLEAR     63  61  94 CALM      30.08S
CLARKSVILLE    CLEAR     68  60  75 W3        30.06F
LEBANON        MOCLDY    63  60  90 CALM      30.06F
SMYRNA         MOCLDY    65  64  96 CALM      30.08F
MURFREESBORO   MOCLDY    67  63  87 CALM      30.06F
COOKEVILLE     CLEAR     63  63 100 CALM      30.09S
GALLATIN       MOCLDY    65  62  90 CALM      30.08F
CROSSVILLE     PTCLDY    64  60  87 CALM      30.13F FOG
$$

TNZ061-075-076-078-094-096-097-010700-
SOUTH MIDDLE TENNESSEE

CITY           SKY/WX    TMP DP  RH WIND       PRES   REMARKS
LEWISBURG      MOCLDY    61  58  90 CALM      30.07F
FAYETTEVILLE   CLEAR     63  59  88 CALM      30.08F
TULLAHOMA      CLEAR     63  59  88 CALM      30.09F
WINCHESTER     CLEAR     63  61  94 CALM      30.09S
MCMINNVILLE    CLEAR     63  63 100 CALM      30.09F
COLUMBIA       CLEAR     64  64 100 CALM      30.06F
SHELBYVILLE    PTCLDY    64  63  94 CALM      30.08F
$$

TNZ017-018-042-046-047-010700-
NORTHEAST TENNESSEE

CITY           SKY/WX    TMP DP  RH WIND       PRES   REMARKS
TRI CITIES     CLOUDY    66  61  84 CALM      30.13F
ELIZABETHTON   CLEAR     64  55  72 E5        30.14F
$$

TNZ012-013-036-069-073-074-010700-
CENTRAL EAST TENNESSEE

CITY           SKY/WX    TMP DP  RH WIND       PRES   REMARKS
KNOXVILLE      MOCLDY    69  65  86 CALM      30.07F
OAK RIDGE      PTCLDY    68  64  87 CALM      30.10F
GATLINBURG     CLEAR     66  63  88 CALM      30.08F
MORRISTOWN     CLEAR     66  59  77 E7        30.11S
$$

TNZ083-085-099-010700-
SOUTHEAST TENNESSEE

CITY           SKY/WX    TMP DP  RH WIND       PRES   REMARKS
CHATTANOOGA    MOCLDY    71  65  81 CALM      30.08F
$$

SKY/WX REPORTED AS FAIR MEANS FEW OR NO CLOUDS BELOW
12 THOUSAND FEET.




USA.gov is the U.S. government's official web portal to all federal, state and local government web resources and services.